Regional Weather Roundup
Issued by NWS Newport/Morehead, NC

Current Version | Previous Version | Graphics & Text | Print | Product List | Glossary Off
Versions: 1 2 3 4 5 6 7 8 9 10 11 12 13 14 15 16 17 18 19 20 21 22 23 24 25 26 27 28 29 30 31 32 33 34 35 36 37 38 39 40 41 42 43 44 45 46 47 48 49 50

000
ASUS42 KMHX 042124
RWRMHX
WEATHER ROUNDUP FOR EASTERN NORTH CAROLINA
NATIONAL WEATHER SERVICE NEWPORT/MOREHEAD CITY NC
500 PM EDT MON MAY 04 2015

NOTE: "FAIR" INDICATES FEW OR NO CLOUDS BELOW 12,000 FEET
WITH NO SIGNIFICANT WEATHER AND/OR OBSTRUCTIONS TO VISIBILITY

NCZ015>017-031-032-045>047-102-103-042200-
NORTH COAST

CITY           SKY/WX    TMP DP  RH WIND       PRES   REMARKS
EDENTON        MOSUNNY   78  51  39 S7        30.27F
ELIZABETH CITY SUNNY     80  48  32 S8        30.27F
KITTY HAWK     MOCLDY    75  46  34 S8G17     30.28S
MANTEO         SUNNY     72  54  52 S16G22    30.29S

$$

NCZ045>047-081-094-103-104-042200-
CENTRAL COAST

CITY           SKY/WX    TMP DP  RH WIND       PRES   REMARKS
FRISCO         SUNNY     70  59  68 S6        30.33S
SWANQUARTER      N/A     75 N/A N/A S14       30.27S

$$

NCZ095-097-098-100-101-042200-
SOUTHERN COAST

CITY           SKY/WX    TMP DP  RH WIND       PRES   REMARKS
BEAUFORT       SUNNY     75  53  46 S9        30.32F
CEDAR ISLAND     N/A     79 N/A N/A SE9G18    30.36S
JACKSONVILLE   SUNNY     76  53  44 S10       30.30F
PINEY ISLAND   MOCLDY   N/A N/A N/A S14G21    30.31F
WILMINGTON     SUNNY     76  53  44 SE9G22    30.31F


$$

NCZ011>013-027>030-043-044-078>080-089-090>093-098-042200-
COASTAL PLAIN

CITY           SKY/WX    TMP DP  RH WIND       PRES   REMARKS
AHOSKIE        SUNNY     79  48  33 S7        30.26F
CLINTON        SUNNY     81  52  36 SW5       30.28F
ELIZABETHTOWN  SUNNY     78  54  42 S10       30.28S
GOLDSBORO      SUNNY     81  49  33 S7        30.26F
GREENVILLE     SUNNY     81  46  30 SW5       30.28F
HAVELOCK       SUNNY     76  53  44 S16G23    30.32F
KENANSVILLE    MOSUNNY   80  44  27 SE6       30.29F
KINSTON        MOSUNNY   82  46  28 S5        30.28F
NEW BERN       SUNNY     79  51  37 SW12G18   30.31S
RICHLANDS      MOSUNNY   79  54  41 S14G20    30.31S
ROCKY MOUNT    SUNNY     81  50  33 S9G18     30.26F
WASHINGTON     PTSUNNY   79  48  33 S8        30.28S
WHITEVILLE     MOSUNNY   78  53  42 SE14      30.28F

$$

AMZ130-135-150-152-154-156-158-170-250-252-270-ANZ085-086-088-633-658-670-042200-
MARINE OBSERVATIONS

STATION/POSITION TIME  TEMP    WIND        PRES    WAVE   SWELL
                       AIR SEA DIR/SP/G            HT/PER HT/PER
                 (UTC) (F)     (DEG/KT/KT) (MB)    (FT/S) (FT/S)
CHESAPEAKE LIGHT 2100   61     170/ 25/ 25 1024.8
64 E VA BEACH    2050   64 62  190/ 10/ 12 1025.6    3/10   3/10
DUCK             2100      58  140/  9/ 10 1024.6
2 E DUCK         2011      60                N/A     3/12   2/12
OREGON INLET     2100   71 69  180/ 13/ 15 1026.3
13E OREGON INLT  2100      56                N/A     2/11   2/11
HATTERAS CG      2000   72 65  180/  7/  8 1026.6
DIAMOND BUOY     2050   74 79  200/  8/ 12 1026.9    4/11   3/11
CAPE LOOKOUT     2100   71     160/  5/  6 1026.7
BEAUFORT LAB     2000   72 67  180/  9/ 10 1026.1
27 SE WRIGHTSVLE 2000   71 73  190/  2/  4   N/A
5 SE WRIGHTSVLE  2008   71 69  200/  6/  8 1026.8
225 S CAPE HAT   2050   69 70   80/ 14/ 16 1026.4    5/10   3/10
41 SE CHARLESTON 2050   74 74   80/ 12/ 16 1025.5    3/ 7   2/ 7

$$


USA.gov is the U.S. government's official web portal to all federal, state and local government web resources and services.